• In Uzbekistan
  • List of Countries
  • For 7 days
  • Water Temperature
  • Satellite Maps
  • Weather Map
  • Weather Widgets
  • user-avatar
    Login

    Hourly Weather Aberdeen

    Today, 19 February, Monday

    Time Temperature Precipitation Wind Pressure Humidity
    00:00 +4°C° 0.4 mm 2 mps 752 mmHg 97%
    01:00 +4°C° 0.3 mm 2 mps 752 mmHg 97%
    02:00 +4°C° 0.3 mm 2 mps 751 mmHg 97%
    03:00 +5°C° 0.3 mm 2 mps 751 mmHg 97%
    04:00 +6°C° 0.2 mm 1 mps 751 mmHg 97%
    05:00 +6°C° 0.2 mm 1 mps 751 mmHg 96%
    06:00 +6°C° 0.2 mm 1 mps 752 mmHg 96%
    07:00 +6°C° 0.1 mm 1 mps 752 mmHg 96%
    08:00 +7°C° 0.1 mm 1 mps 752 mmHg 96%
    09:00 +7°C° 0.1 mm 1 mps 752 mmHg 96%
    10:00 +7°C° 0.1 mm 1 mps 753 mmHg 95%
    11:00 +8°C° 0.1 mm 1 mps 753 mmHg 95%
    12:00 +8°C° 0.1 mm 1 mps 753 mmHg 95%
    13:00 +8°C° 0.1 mm 1 mps 753 mmHg 94%
    14:00 +9°C° 0.1 mm 1 mps 753 mmHg 93%
    15:00 +9°C° 0.1 mm 1 mps 753 mmHg 93%
    16:00 +8°C° 0.1 mm 1 mps 753 mmHg 94%
    17:00 +8°C° 0.1 mm 1 mps 753 mmHg 95%
    18:00 +7°C° 0.1 mm 1 mps 753 mmHg 96%
    19:00 +7°C° 0 mm 1 mps 754 mmHg 95%
    20:00 +7°C° 0 mm 1 mps 754 mmHg 95%
    21:00 +6°C° 0 mm 1 mps 754 mmHg 95%
    22:00 +6°C° 0.4 mm 2 mps 754 mmHg 94%
    23:00 +5°C° 0.4 mm 3 mps 754 mmHg 92%

    Tomorrow, 20 February, Tuesday

    Time Temperature Precipitation Wind Pressure Humidity
    00:00 +5°C° 0.4 mm 4 mps 754 mmHg 91%
    01:00 +5°C° 0.9 mm 4 mps 755 mmHg 89%
    02:00 +3°C° 0.9 mm 5 mps 755 mmHg 88%
    03:00 +3°C° 0.9 mm 5 mps 755 mmHg 86%
    04:00 +2°C° 0.2 mm 5 mps 756 mmHg 87%
    05:00 +2°C° 0.2 mm 5 mps 757 mmHg 87%
    06:00 +2°C° 0.2 mm 5 mps 757 mmHg 88%
    07:00 +2°C° 0 mm 5 mps 758 mmHg 87%
    08:00 +2°C° 0 mm 5 mps 759 mmHg 86%
    09:00 +2°C° 0 mm 5 mps 759 mmHg 84%
    10:00 +3°C° 0 mm 5 mps 760 mmHg 81%
    11:00 +5°C° 0 mm 5 mps 760 mmHg 77%
    12:00 +5°C° 0 mm 6 mps 761 mmHg 73%
    13:00 +6°C° 0 mm 5 mps 761 mmHg 73%
    14:00 +6°C° 0 mm 5 mps 762 mmHg 72%
    15:00 +6°C° 0 mm 4 mps 762 mmHg 72%
    16:00 +5°C° 0 mm 4 mps 762 mmHg 76%
    17:00 +4°C° 0 mm 4 mps 763 mmHg 81%
    18:00 +3°C° 0 mm 3 mps 763 mmHg 85%
    19:00 +2°C° 0 mm 3 mps 764 mmHg 86%
    20:00 +2°C° 0 mm 3 mps 764 mmHg 87%
    21:00 +1°C° 0 mm 3 mps 764 mmHg 88%
    22:00 +1°C° 0 mm 3 mps 765 mmHg 88%
    23:00 +1°C° 0 mm 3 mps 765 mmHg 88%

    Day after tomorrow, 21 February, Wednesday

    Time Temperature Precipitation Wind Pressure Humidity
    00:00 +1°C° 0 mm 3 mps 765 mmHg 88%
    01:00 +1°C° 0 mm 3 mps 765 mmHg 88%
    02:00 0°C° 0 mm 3 mps 765 mmHg 88%
    03:00 0°C° 0 mm 3 mps 765 mmHg 88%
    04:00 0°C° 0 mm 3 mps 765 mmHg 87%
    05:00 +1°C° 0 mm 2 mps 765 mmHg 87%
    06:00 +1°C° 0 mm 2 mps 765 mmHg 86%
    07:00 +2°C° 0 mm 2 mps 765 mmHg 84%
    08:00 +2°C° 0 mm 2 mps 765 mmHg 82%
    09:00 +3°C° 0 mm 2 mps 765 mmHg 80%
    10:00 +4°C° 0 mm 2 mps 765 mmHg 77%
    11:00 +6°C° 0 mm 1 mps 765 mmHg 73%
    12:00 +7°C° 0 mm 1 mps 765 mmHg 69%
    13:00 +7°C° 0 mm 1 mps 765 mmHg 69%
    14:00 +7°C° 0 mm 1 mps 764 mmHg 69%
    15:00 +6°C° 0 mm 2 mps 764 mmHg 69%
    16:00 +6°C° 0 mm 1 mps 764 mmHg 75%
    17:00 +5°C° 0 mm 1 mps 764 mmHg 81%
    18:00 +3°C° 0 mm 1 mps 764 mmHg 86%
    19:00 +3°C° 0 mm 1 mps 764 mmHg 88%
    20:00 +3°C° 0 mm 1 mps 764 mmHg 89%
    21:00 +2°C° 0 mm 1 mps 764 mmHg 91%
    22:00 +2°C° 0 mm 1 mps 764 mmHg 92%
    23:00 +2°C° 0 mm 1 mps 764 mmHg 93%

    22 February, Thursday

    Time Temperature Precipitation Wind Pressure Humidity
    00:00 +2°C° 0 mm 1 mps 764 mmHg 94%
    01:00 +2°C° 0 mm 1 mps 764 mmHg 94%
    02:00 +2°C° 0 mm 1 mps 763 mmHg 95%
    03:00 +2°C° 0 mm 1 mps 763 mmHg 95%
    04:00 +2°C° 0 mm 1 mps 763 mmHg 95%
    05:00 +2°C° 0 mm 1 mps 763 mmHg 96%
    06:00 +1°C° 0 mm 2 mps 763 mmHg 96%
    07:00 +2°C° 0 mm 2 mps 763 mmHg 94%
    08:00 +2°C° 0 mm 2 mps 763 mmHg 93%
    09:00 +3°C° 0 mm 2 mps 763 mmHg 91%
    10:00 +2°C° 0 mm 3 mps 762 mmHg 86%
    11:00 +3°C° 0 mm 3 mps 762 mmHg 80%
    12:00 +4°C° 0 mm 3 mps 762 mmHg 75%
    13:00 +4°C° 0 mm 3 mps 762 mmHg 74%
    14:00 +4°C° 0 mm 4 mps 762 mmHg 73%
    15:00 +4°C° 0 mm 4 mps 761 mmHg 73%
    16:00 +3°C° 0 mm 3 mps 761 mmHg 76%
    17:00 +2°C° 0 mm 3 mps 761 mmHg 80%
    18:00 +2°C° 0 mm 3 mps 761 mmHg 83%
    19:00 +1°C° 0 mm 3 mps 761 mmHg 85%
    20:00 +1°C° 0 mm 3 mps 761 mmHg 86%
    21:00 0°C° 0 mm 3 mps 761 mmHg 87%
    22:00 0°C° 0 mm 3 mps 761 mmHg 88%
    23:00 0°C° 0 mm 3 mps 761 mmHg 90%

    23 February, Friday

    Time Temperature Precipitation Wind Pressure Humidity
    00:00 0°C° 0 mm 3 mps 761 mmHg 91%
    01:00 0°C° 0 mm 3 mps 761 mmHg 91%
    02:00 +1°C° 0 mm 2 mps 761 mmHg 91%
    03:00 +1°C° 0 mm 2 mps 761 mmHg 91%
    04:00 +1°C° 0 mm 2 mps 761 mmHg 92%
    05:00 +1°C° 0 mm 2 mps 760 mmHg 93%
    06:00 +1°C° 0 mm 2 mps 760 mmHg 93%
    07:00 +1°C° 0 mm 2 mps 760 mmHg 91%
    08:00 +2°C° 0 mm 2 mps 761 mmHg 89%
    09:00 +2°C° 0 mm 2 mps 761 mmHg 87%
    10:00 +3°C° 0 mm 2 mps 761 mmHg 83%
    11:00 +3°C° 0 mm 2 mps 761 mmHg 79%
    12:00 +3°C° 0 mm 2 mps 761 mmHg 74%
    13:00 +4°C° 0 mm 2 mps 760 mmHg 72%
    14:00 +4°C° 0 mm 2 mps 760 mmHg 70%
    15:00 +4°C° 0 mm 2 mps 760 mmHg 69%
    16:00 +3°C° 0 mm 2 mps 760 mmHg 72%
    17:00 +2°C° 0 mm 2 mps 760 mmHg 76%
    18:00 +1°C° 0 mm 2 mps 760 mmHg 80%
    19:00 +1°C° 0 mm 2 mps 761 mmHg 81%
    20:00 -1°C° 0 mm 2 mps 761 mmHg 83%
    21:00 -1°C° 0 mm 2 mps 761 mmHg 85%
    22:00 -1°C° 0 mm 2 mps 761 mmHg 85%
    23:00 -1°C° 0 mm 2 mps 761 mmHg 86%

    24 February, Saturday

    Time Temperature Precipitation Wind Pressure Humidity
    00:00 -1°C° 0 mm 2 mps 761 mmHg 86%
    01:00 -2°C° 0 mm 2 mps 762 mmHg 87%
    02:00 -2°C° 0 mm 2 mps 762 mmHg 87%
    03:00 -2°C° 0 mm 2 mps 762 mmHg 87%
    04:00 -2°C° 0 mm 2 mps 762 mmHg 87%
    05:00 0°C° 0 mm 1 mps 762 mmHg 87%
    06:00 0°C° 0 mm 1 mps 762 mmHg 87%
    07:00 +1°C° 0 mm 1 mps 762 mmHg 83%
    08:00 -1°C° 0 mm 2 mps 762 mmHg 80%
    09:00 +1°C° 0 mm 2 mps 763 mmHg 77%
    10:00 +2°C° 0 mm 2 mps 763 mmHg 71%
    11:00 +3°C° 0 mm 2 mps 763 mmHg 66%
    12:00 +4°C° 0 mm 2 mps 763 mmHg 60%
    13:00 +4°C° 0 mm 2 mps 763 mmHg 60%
    14:00 +4°C° 0 mm 2 mps 762 mmHg 60%
    15:00 +4°C° 0 mm 2 mps 762 mmHg 60%
    16:00 +3°C° 0 mm 2 mps 762 mmHg 66%
    17:00 +2°C° 0 mm 2 mps 762 mmHg 73%
    18:00 +1°C° 0 mm 2 mps 762 mmHg 79%
    19:00 +1°C° 0 mm 2 mps 762 mmHg 81%
    20:00 0°C° 0 mm 3 mps 762 mmHg 84%
    21:00 0°C° 0 mm 3 mps 762 mmHg 86%
    22:00 0°C° 0.1 mm 3 mps 762 mmHg 86%
    23:00 +1°C° 0.1 mm 3 mps 762 mmHg 86%
    Show more